User: anonymous   Login
Location: Newark
(23.3970°S, 47.6010°W)
Time: 00:26:12
(UTC+00:00)
Language:

A-11 Canister half - Orbit

View from above orbital plane
View from above orbital plane
View from above satellite
View from above satellite

Ground track
Ground track

The orbit data is extracted from the following two-line orbital elements,

1    53U 60009E   20053.58504730 -.00000092 +00000-0 -64108-4 0  9991
2    53 047.2740 256.3071 0100142 098.4444 262.7710 12.17240732654457
Epoch (UTC): 22 February 2020 14:02:28
Eccentricity: 0.0100142
inclination: 47.2740°
perigee height: 1524 km
apogee height: 1684 km
right ascension of ascending node: 256.3071°
argument of perigee: 98.4444°
revolutions per day: 12.17240732
mean anomaly at epoch: 262.7710°
orbit number at epoch: 65445

The dashed part of the orbit path shows where the satellite is in the earth's shadow,  

DLR